This is the latest recevied weather packets stored in our database for station/object K7FLA. If no packets are shown the sender has not sent any weather packets the latest 10 day(s).
| Time | Temp. | Humidity | Pressure | Rain* | Wind** | Luminosity | Snow |
|---|---|---|---|---|---|---|---|
| 1777419209 | 23.33° C | 24% | 1095.7 hPa | 0 mm | - | 386 W/m² | - |
| 1777418906 | 23.89° C | 23% | 1095.9 hPa | 0 mm | - | 401 W/m² | - |
| 1777418602 | 23.89° C | 22% | 1095.6 hPa | 0 mm | - | 420 W/m² | - |
| 1777418298 | 23.89° C | 22% | 1095.6 hPa | 0 mm | - | 436 W/m² | - |
| 1777417994 | 23.89° C | 22% | 1095.5 hPa | 0 mm | - | 454 W/m² | - |
| 1777417690 | 24.44° C | 22% | 1095.6 hPa | 0 mm | - | 467 W/m² | - |
| 1777417385 | 24.44° C | 23% | 1095.4 hPa | 0 mm | - | 486 W/m² | - |
| 1777417082 | 24.44° C | 23% | 1095.6 hPa | 0 mm | - | 502 W/m² | - |
| 1777416778 | 24.44° C | 23% | 1095.6 hPa | 0 mm | - | 515 W/m² | - |
| 1777416473 | 25° C | 23% | 1095.5 hPa | 0 mm | - | 530 W/m² | - |
| 1777416170 | 25° C | 23% | 1095.6 hPa | 0 mm | - | 543 W/m² | - |
| 1777415864 | 24.44° C | 25% | 1095.9 hPa | 0 mm | - | 559 W/m² | - |
| 1777415559 | 25° C | 24% | 1095.5 hPa | 0 mm | - | 572 W/m² | - |
| 1777415256 | 25° C | 24% | 1095.6 hPa | 0 mm | - | 585 W/m² | - |
| 1777414951 | 25° C | 23% | 1095.4 hPa | 0 mm | - | 598 W/m² | - |
| 1777414650 | 25° C | 24% | 1095.7 hPa | 0 mm | - | 610 W/m² | - |
| 1777414321 | 25° C | 24% | 1095.9 hPa | 0 mm | - | 641 W/m² | - |
| 1777414016 | 25° C | 24% | 1095.9 hPa | 0 mm | - | 641 W/m² | - |
| 1777413711 | 25° C | 25% | 1096 hPa | 0 mm | - | 671 W/m² | - |
| 1777413407 | 25° C | 25% | 1096 hPa | 0 mm | - | 671 W/m² | - |
| 1777413103 | 25° C | 24% | 1095.9 hPa | 0 mm | - | 678 W/m² | - |
| 1777412798 | 25° C | 26% | 1096 hPa | 0 mm | - | 687 W/m² | - |
| 1777412493 | 25° C | 27% | 1095.9 hPa | 0 mm | - | 699 W/m² | - |
| 1777412190 | 25.56° C | 27% | 1096.2 hPa | 0 mm | - | 711 W/m² | - |
| 1777411887 | 25.56° C | 27% | 1096.3 hPa | 0 mm | - | 718 W/m² | - |
* Rain latest hour (hover to see other rain measurements)
** Current wind speed in m/s (hover to see current wind gust speed)